User: anonymous   Login
Location: ??
(35.5653°N, 139.6194°E)
Time: 18:13:31
(UTC+00:00)
Language:

Delta 2 Rocket - Orbit

View from above orbital plane
View from above orbital plane
View from above satellite
View from above satellite

Ground track
Ground track

The orbit data is extracted from the following two-line orbital elements,

1 20453U 90008B   21018.79694297  .00001636  00000-0  91685-4 0  9995
2 20453  35.6268  66.0859 0279209 303.0706  54.3484 14.86162614643244
Epoch (UTC): 18 January 2021 19:07:35
Eccentricity: 0.0279209
inclination: 35.6268°
perigee height: 415 km
apogee height: 805 km
right ascension of ascending node: 66.0859°
argument of perigee: 303.0706°
revolutions per day: 14.86162614
mean anomaly at epoch: 54.3484°
orbit number at epoch: 64324

The dashed part of the orbit path shows where the satellite is in the earth's shadow,  

DLR